Location: Austin
(30.3000°N, 97.7500°W)
Time: 07:33:23
(UTC-05:00)

Cosmos 220 Rocket - Pass Details

Date: 16 June 2025
Orbit: 545 x 581 km, 74.0° (Epoch: 08 July)

Event Time Altitude Azimuth Distance (km) Brightness Sun altitude
Rises 04:21:25 0° 341° (NNW) 2,765 7.8 -22.7°
Reaches altitude 10° 04:23:37 10° 339° (NNW) 1,871 6.8 -22.3°
Maximum altitude 04:27:46 72° 256° (WSW) 604 3.7 -21.7°
Enters shadow 04:27:55 71° 236° (SW) 608 3.7 -21.7°
